Regional Weather Roundup
Issued by NWS

Home | Current Version | Previous Version | Text Only | Print | Product List | Glossary On
Versions: 1 2 3 4 5 6 7 8 9 10 11 12 13 14 15 16 17 18 19 20 21 22 23 24 25 26 27 28 29 30 31 32 33 34 35 36 37 38 39 40 41 42 43 44 45 46 47 48 49 50
923
ASUS43 KFSD 230710
RWRSD

WEATHER ROUNDUP FOR SOUTH DAKOTA
NATIONAL WEATHER SERVICE SIOUX FALLS SD
200 AM CDT SAT JUL 23 2016

NOTE: "FAIR" INDICATES FEW OR NO CLOUDS BELOW 12,000 FEET WITH NO
SIGNIFICANT WEATHER AND/OR OBSTRUCTIONS TO VISIBILITY.


SDZ001>005-009-010-012>017-230800-
NORTHWEST AND NORTH CENTRAL SOUTH DAKOTA

CITY           SKY/WX    TMP DP  RH WIND       PRES   REMARKS
BUFFALO          N/A     71  60  68 E16G30    29.82F
FAITH            N/A     70  58  65 E13       29.93F
MOBRIDGE       PTCLDY    70  61  73 N7        29.94R
$$

SDZ012>016-024>037-041>051-057-063-072>074-230800-
SOUTHWEST AND SOUTH CENTRAL SOUTH DAKOTA

CITY           SKY/WX    TMP DP  RH WIND       PRES   REMARKS
RAPID CTY ARPT LGT RAIN  75  56  51 E10       29.91F
PIERRE         CLOUDY    78  67  68 E18       29.82F
CUSTER         CLOUDY    69  51  52 SW7       30.07F
ELLSWORTH AFB  MOCLDY    75  57  52 E9        29.91F
PHILIP         CLOUDY    74  71  91 E15       29.88R
PINE RIDGE     CLOUDY    77  58  51 W6        29.99R
WINNER         FAIR      83  76  79 E7        29.90R
$$

SDZ004>011-016>023-039-040-230800-
NORTHEAST SOUTH DAKOTA

CITY           SKY/WX    TMP DP  RH WIND       PRES   REMARKS
ABERDEEN       CLOUDY    74  68  81 SE6       29.92F
WATERTOWN      MOCLDY    78  66  66 E6        29.94F
BROOKINGS      CLOUDY    74  69  85 NE7       29.93F
SISSETON         N/A     70  69  97 CALM      29.92F
$$

SDZ017-020-022-023-036>040-048>070-230800-
SOUTHEAST SOUTH DAKOTA

CITY           SKY/WX    TMP DP  RH WIND       PRES   REMARKS
SIOUX FALLS    CLOUDY    80  78  94 E9        29.90F
HURON          CLOUDY    78  73  84 NE7       29.89F
CHAMBERLAIN    CLOUDY    82  80  94 NE9       29.89S
MITCHELL       CLOUDY    80  78  94 E7        29.87F
YANKTON        CLOUDY    81  77  89 E7        29.85F
$$

ABBREVIATIONS USED IN REMARKS
   TC - TEMPERATURE IN CELSIUS
  WCI - WIND CHILL INDEX
   HX - HEAT INDEX
  VSB - VISIBILITY





USA.gov is the U.S. government's official web portal to all federal, state and local government web resources and services.